Location: Wangen+im+Allg�u
(47.7098°N, 9.8383°E)
Time: 08:29:19
(UTC+01:00)

ISS - Pass Details

Date: 11 January 2018
Orbit: 402 x 406 km, 51.6° (Epoch: 16 January)

Event Time Altitude Azimuth Distance (km) Brightness Sun altitude
Exits shadow 07:15:03 11° 282° (WNW) 1,379 -1.8 -8.6°
Maximum altitude 07:17:53 37° 215° (SW) 652 -2.9 -8.1°
Drops below altitude 10° 07:20:56 10° 146° (SE) 1,460 0.0 -7.6°
Sets 07:23:05 0° 138° (SE) 2,317 1.5 -7.3°
